Location: Lombard
(41.8800°N, 88.0080°W)
Time: 12:58:49
(UTC-06:00)

Transit 4A - Pass Details

Date: 07 December 2023
Orbit: 870 x 973 km, 66.8° (Epoch: 03 March)

Event Time Altitude Azimuth Distance (km) Brightness Sun altitude
Rises 17:28:47 0° 156° (SSE) 3,652 11.0 -12.3°
Reaches altitude 10° 17:32:35 10° 133° (SE) 2,712 10.1 -13.0°
Maximum altitude 17:35:51 15° 102° (ESE) 2,384 9.5 -13.5°
Enters shadow 17:36:13 15° 98° (E) 2,389 9.5 -13.6°
Drops below altitude 10° 17:39:08 10° 70° (ENE) 2,710 - -14.1°
Sets 17:42:54 0° 48° (NE) 3,650 - -14.8°
